Location: Unspecified
(48.5670°N, 0.0000°E)
Time: 22:27:03
(UTC+00:00)

Vanguard 2 Rocket - Pass Details

Date: 31 August 2019
Orbit: 554 x 3327 km, 32.9° (Epoch: 15 September)

Event Time Altitude Azimuth Distance (km) Brightness Sun altitude
Rises 06:04:47 0° 267° (W) 5,529 10.2 7.2°
Reaches altitude 10° 06:08:44 10° 256° (WSW) 4,909 10.0 7.9°
Maximum altitude 06:20:24 28° 206° (SSW) 4,434 10.2 9.8°
Drops below altitude 10° 06:35:18 10° 157° (SSE) 6,268 11.5 12.3°
Sets 06:41:23 0° 148° (SSE) 7,285 12.0 13.3°
